Weather reports worldwide

Advertisment
Mafraq, Jordan (40265): temperature & dewpoint: 12.10.2018 20:00:00 - 18.10.2018 20:00:00 (EEST)Mafraq, Jordan (40265): wind speed: 12.10.2018 20:00:00 - 18.10.2018 20:00:00 (EEST)Mafraq, Jordan (40265): wind direction: 12.10.2018 20:00:00 - 18.10.2018 20:00:00 (EEST)Mafraq, Jordan (40265): reduced air pressure: 12.10.2018 20:00:00 - 18.10.2018 20:00:00 (EEST)Mafraq, Jordan (40265): visibility: 12.10.2018 20:00:00 - 18.10.2018 20:00:00 (EEST)
Date & Time tt [°C] td [°C] ff [km/h] ff [kn] dd ppp [hPa] vv [km]
18.10.2018 20:00:00 - - - - - - -
18.10.2018 19:00:00 - - - - - - -
18.10.2018 18:00:00 24,7 14,4 15 8 WNW 1011,4 4,0
18.10.2018 17:00:00 - - - - - - -
18.10.2018 16:00:00 - - - - - - -
18.10.2018 15:00:00 27,0 8,0 15 8 NNW 1011,2 3,0
18.10.2018 14:00:00 - - - - - - -
18.10.2018 13:00:00 - - - - - - -
18.10.2018 12:00:00 25,2 12,4 11 6 NW 1013,1 3,0
18.10.2018 11:00:00 - - - - - - -
18.10.2018 10:00:00 - - - - - - -
18.10.2018 09:00:00 19,0 18,1 8 4 NE 1013,7 4,0
18.10.2018 08:00:00 - - - - - - -
18.10.2018 07:00:00 - - - - - - -
18.10.2018 06:00:00 18,0 16,7 0 0 N 1012,6 4,0
18.10.2018 05:00:00 - - - - - - -
18.10.2018 04:00:00 - - - - - - -
18.10.2018 03:00:00 17,2 15,9 8 4 N 1012,7 5
18.10.2018 02:00:00 - - - - - - -
18.10.2018 01:00:00 - - - - - - -
18.10.2018 00:00:00 18,8 16,5 11 6 N 1013,9 6
17.10.2018 23:00:00 - - - - - - -
17.10.2018 22:00:00 - - - - - - -
17.10.2018 21:00:00 - - - - - - -
17.10.2018 20:00:00 - - - - - - -
17.10.2018 19:00:00 - - - - - - -
17.10.2018 18:00:00 24,4 15,8 18 10 WNW 1012,1 4,0
17.10.2018 17:00:00 - - - - - - -
17.10.2018 16:00:00 - - - - - - -
17.10.2018 15:00:00 26,0 15,1 18 10 NNW 1012,3 4,0
17.10.2018 14:00:00 - - - - - - -
17.10.2018 13:00:00 - - - - - - -
17.10.2018 12:00:00 23,6 16,7 15 8 WNW 1014,0 5
17.10.2018 11:00:00 - - - - - - -
17.10.2018 10:00:00 - - - - - - -
17.10.2018 09:00:00 19,6 18,0 8 4 NW 1014,9 8
17.10.2018 08:00:00 - - - - - - -
17.10.2018 07:00:00 - - - - - - -
17.10.2018 06:00:00 16,4 16,1 8 4 N 1014,7 8
17.10.2018 05:00:00 - - - - - - -
17.10.2018 04:00:00 - - - - - - -
17.10.2018 03:00:00 16,6 16,3 0 0 N 1015,0 10
17.10.2018 02:00:00 - - - - - - -
17.10.2018 01:00:00 - - - - - - -
17.10.2018 00:00:00 18,6 17,7 11 6 NNW 1015,6 10
16.10.2018 23:00:00 - - - - - - -
16.10.2018 22:00:00 - - - - - - -
16.10.2018 21:00:00 20,2 17,4 15 8 NW 1015,7 10
16.10.2018 20:00:00 - - - - - - -
16.10.2018 19:00:00 - - - - - - -
16.10.2018 18:00:00 24,8 13,6 11 6 WNW 1014,7 5
16.10.2018 17:00:00 - - - - - - -
16.10.2018 16:00:00 - - - - - - -
16.10.2018 15:00:00 26,0 12,7 11 6 W 1014,4 8
16.10.2018 14:00:00 - - - - - - -
16.10.2018 13:00:00 - - - - - - -
16.10.2018 12:00:00 23,0 16,0 18 10 WNW 1016,0 8
16.10.2018 11:00:00 - - - - - - -
16.10.2018 10:00:00 - - - - - - -
16.10.2018 09:00:00 19,0 18,4 11 6 NNW 1016,4 8
16.10.2018 08:00:00 - - - - - - -
16.10.2018 07:00:00 - - - - - - -
16.10.2018 06:00:00 16,6 16,3 8 4 NW 1016,2 8
16.10.2018 05:00:00 - - - - - - -
16.10.2018 04:00:00 - - - - - - -
16.10.2018 03:00:00 16,6 16,3 0 0 N 1015,0 10
16.10.2018 02:00:00 - - - - - - -
16.10.2018 01:00:00 - - - - - - -
16.10.2018 00:00:00 20,4 18,9 15 8 NW 1015,8 10
15.10.2018 23:00:00 - - - - - - -
15.10.2018 22:00:00 - - - - - - -
15.10.2018 21:00:00 21,0 17,9 18 10 WNW 1016,1 10
15.10.2018 20:00:00 - - - - - - -
15.10.2018 19:00:00 - - - - - - -
15.10.2018 18:00:00 25,0 14,6 15 8 WNW 1015,2 8
15.10.2018 17:00:00 - - - - - - -
15.10.2018 16:00:00 - - - - - - -
15.10.2018 15:00:00 27,0 12,3 11 6 N 1014,6 8
15.10.2018 14:00:00 - - - - - - -
15.10.2018 13:00:00 - - - - - - -
15.10.2018 12:00:00 24,4 14,7 11 6 WNW 1015,9 8
15.10.2018 11:00:00 - - - - - - -
15.10.2018 10:00:00 - - - - - - -
15.10.2018 09:00:00 18,2 16,9 8 4 NNW 1016,0 4,0
15.10.2018 08:00:00 - - - - - - -
15.10.2018 07:00:00 - - - - - - -
15.10.2018 06:00:00 14,6 12,5 0 0 N 1015,2 6
15.10.2018 05:00:00 - - - - - - -
15.10.2018 04:00:00 - - - - - - -
15.10.2018 03:00:00 17,4 16,8 8 4 NNW 1015,8 10
15.10.2018 02:00:00 - - - - - - -
15.10.2018 01:00:00 - - - - - - -
15.10.2018 00:00:00 18,2 13,8 0 0 N 1014,7 10
14.10.2018 23:00:00 - - - - - - -
14.10.2018 22:00:00 - - - - - - -
14.10.2018 21:00:00 21,4 15,9 15 8 NW 1014,8 10
14.10.2018 20:00:00 - - - - - - -
14.10.2018 19:00:00 - - - - - - -
14.10.2018 18:00:00 25,6 13,0 18 10 WNW 1014,1 6
14.10.2018 17:00:00 - - - - - - -
14.10.2018 16:00:00 - - - - - - -
14.10.2018 15:00:00 28,6 7,4 15 8 WNW 1013,6 4,0
14.10.2018 14:00:00 - - - - - - -
14.10.2018 13:00:00 - - - - - - -
14.10.2018 12:00:00 25,2 9,7 15 8 NNW 1015,4 4,0
14.10.2018 11:00:00 - - - - - - -
14.10.2018 10:00:00 - - - - - - -
14.10.2018 09:00:00 20,0 12,8 15 8 WNW 1016,5 3,0
14.10.2018 08:00:00 - - - - - - -
14.10.2018 07:00:00 - - - - - - -
14.10.2018 06:00:00 14,8 11,2 0 0 N 1016,0 10
14.10.2018 05:00:00 - - - - - - -
14.10.2018 04:00:00 - - - - - - -
14.10.2018 03:00:00 - - - - - - -
14.10.2018 02:00:00 - - - - - - -
14.10.2018 01:00:00 - - - - - - -
14.10.2018 00:00:00 17,4 13,3 5 3 NW 1016,3 10
13.10.2018 23:00:00 - - - - - - -
13.10.2018 22:00:00 - - - - - - -
13.10.2018 21:00:00 21,0 13,6 5 3 NW 1016,4 10
13.10.2018 20:00:00 - - - - - - -
13.10.2018 19:00:00 - - - - - - -
13.10.2018 18:00:00 25,0 11,3 15 8 WNW 1015,7 8
13.10.2018 17:00:00 - - - - - - -
13.10.2018 16:00:00 - - - - - - -
13.10.2018 15:00:00 27,8 6,6 5 3 WSW 1015,3 7
13.10.2018 14:00:00 - - - - - - -
13.10.2018 13:00:00 - - - - - - -
13.10.2018 12:00:00 22,5 12,1 8 4 N 1016,8 5
13.10.2018 11:00:00 - - - - - - -
13.10.2018 10:00:00 - - - - - - -
13.10.2018 09:00:00 18,0 16,0 0 0 N 1017,0 5
13.10.2018 08:00:00 - - - - - - -
13.10.2018 07:00:00 - - - - - - -
13.10.2018 06:00:00 13,4 12,7 0 0 N 1016,8 7
13.10.2018 05:00:00 - - - - - - -
13.10.2018 04:00:00 - - - - - - -
13.10.2018 03:00:00 15,7 14,2 0 0 N 1015,7 10
13.10.2018 02:00:00 - - - - - - -
13.10.2018 01:00:00 - - - - - - -
13.10.2018 00:00:00 16,8 14,1 0 0 N 1016,0 10
12.10.2018 23:00:00 - - - - - - -
12.10.2018 22:00:00 - - - - - - -
12.10.2018 21:00:00 19,2 14,5 8 4 NW 1015,4 10
12.10.2018 20:00:00 - - - - - - -

tt = temperature
td = dewpoint
ff = wind speed
dd = wind direction
ppp = reduced air pressure
vv = visibility

Next stations